Location: Godiavel Galaoual
(15.2485°N, 12.6604°W)
Time: 00:34:29
(UTC+00:00)

Transit 4A - Pass Details

Date: 20 June 2021
Orbit: 872 x 972 km, 66.8° (Epoch: 29 July)

Event Time Altitude Azimuth Distance (km) Brightness Sun altitude
Rises 09:30:55 0° 211° (SSW) 3,606 10.6 42.0°
Reaches altitude 10° 09:33:32 10° 215° (SW) 2,648 10.0 42.6°
Maximum altitude 09:39:32 55° 292° (WNW) 1,101 8.6 44.0°
Drops below altitude 10° 09:45:23 10° 9° (N) 2,581 10.6 45.4°
Sets 09:47:55 0° 14° (NNE) 3,508 11.2 45.9°
